TimeCST,TemperatureF,Dew PointF,Humidity,Sea Level PressureIn,VisibilityMPH,Wind Direction,Wind SpeedMPH,Gust SpeedMPH,PrecipitationIn,Events,Conditions,WindDirDegrees,DateUTC
12:05 AM,15.8,10.4,79,30.03,1.8,NW,25.3,33.4,0.00,Snow,Light Snow,320,2012-11-23 06:05:00
12:18 AM,15.8,10.4,79,30.03,3.0,NW,24.2,34.5,0.00,Snow,Light Snow,320,2012-11-23 06:18:00
12:53 AM,15.1,10.0,80,30.14,4.0,NW,23.0,35.7,0.00,Snow,Light Snow,320,2012-11-23 06:53:00
1:53 AM,14.0,8.1,77,30.17,6.0,NW,24.2,31.1,0.00,Snow,Light Snow,320,2012-11-23 07:53:00
2:53 AM,14.0,8.1,77,30.22,3.0,NW,18.4,32.2,0.00,Snow,Light Snow,320,2012-11-23 08:53:00
3:53 AM,14.0,8.1,77,30.24,5.0,NNW,20.7,29.9,0.00,Snow,Light Snow,330,2012-11-23 09:53:00
4:39 AM,14.0,8.6,79,30.18,7.0,NW,20.7,27.6,0.00,Snow,Light Snow,320,2012-11-23 10:39:00
4:53 AM,14.0,8.1,77,30.28,6.0,NNW,18.4,27.6,0.00,Snow,Light Snow,330,2012-11-23 10:53:00
5:53 AM,15.1,9.0,77,30.31,10.0,NW,17.3,27.6,0.00,Snow,Light Snow,320,2012-11-23 11:53:00
6:53 AM,15.1,9.0,77,30.34,10.0,NW,19.6,26.5,0.00,,Overcast,320,2012-11-23 12:53:00
7:53 AM,15.1,9.0,77,30.37,9.0,NNW,12.7,19.6,0.00,Snow,Light Snow,330,2012-11-23 13:53:00
8:53 AM,15.1,9.0,77,30.39,8.0,NW,17.3,24.2,0.00,Snow,Light Snow,320,2012-11-23 14:53:00
9:53 AM,16.0,9.0,74,30.40,8.0,NW,16.1,24.2,0.00,Snow,Light Snow,320,2012-11-23 15:53:00
10:53 AM,17.1,9.0,71,30.43,10.0,NW,13.8,-,0.00,,Overcast,310,2012-11-23 16:53:00
11:29 AM,17.6,10.4,73,30.33,10.0,NNW,12.7,23.0,N/A,,Overcast,330,2012-11-23 17:29:00
11:53 AM,18.0,10.0,71,30.43,9.0,NW,11.5,21.9,0.00,,Overcast,320,2012-11-23 17:53:00
12:53 PM,18.0,9.0,68,30.43,10.0,NNW,15.0,24.2,0.00,,Overcast,330,2012-11-23 18:53:00
1:18 PM,19.4,8.6,63,30.33,10.0,NNW,15.0,-,N/A,,Scattered Clouds,330,2012-11-23 19:18:00
1:53 PM,18.0,8.1,65,30.42,10.0,NW,15.0,-,N/A,,Clear,310,2012-11-23 19:53:00
2:19 PM,17.6,8.6,68,30.33,10.0,NW,13.8,-,N/A,,Mostly Cloudy,320,2012-11-23 20:19:00
2:53 PM,16.0,8.1,71,30.43,9.0,WNW,15.0,-,0.00,Snow,Light Snow,300,2012-11-23 20:53:00
3:53 PM,15.1,7.0,70,30.45,10.0,NW,16.1,-,0.00,,Overcast,310,2012-11-23 21:53:00
4:53 PM,12.9,6.1,74,30.45,10.0,NW,10.4,-,0.00,,Overcast,320,2012-11-23 22:53:00
5:36 PM,12.2,5.0,73,30.35,10.0,NW,11.5,-,N/A,,Scattered Clouds,320,2012-11-23 23:36:00
5:53 PM,10.9,5.0,77,30.46,10.0,NW,9.2,-,N/A,,Clear,320,2012-11-23 23:53:00
6:11 PM,10.4,5.0,79,30.35,10.0,NW,9.2,-,N/A,,Mostly Cloudy,320,2012-11-24 00:11:00
6:53 PM,9.0,5.0,84,30.45,8.0,NW,4.6,-,N/A,,Overcast,320,2012-11-24 00:53:00
7:06 PM,8.6,5.0,85,30.35,9.0,NNW,3.5,-,N/A,,Overcast,330,2012-11-24 01:06:00
7:17 PM,8.6,5.0,85,30.35,6.0,NW,4.6,-,N/A,,Overcast,320,2012-11-24 01:17:00
7:53 PM,5.0,1.0,84,30.46,10.0,West,6.9,-,N/A,,Mostly Cloudy,280,2012-11-24 01:53:00
8:53 PM,6.1,1.9,83,30.45,10.0,NW,5.8,-,N/A,,Mostly Cloudy,310,2012-11-24 02:53:00
9:15 PM,5.0,1.4,85,30.34,10.0,NW,5.8,-,N/A,,Scattered Clouds,310,2012-11-24 03:15:00
9:23 PM,3.2,-0.4,85,30.34,10.0,NW,5.8,-,N/A,,Mostly Cloudy,310,2012-11-24 03:23:00
9:39 PM,6.8,1.4,79,30.33,10.0,NNW,6.9,-,N/A,,Scattered Clouds,330,2012-11-24 03:39:00
9:53 PM,6.1,1.9,83,30.43,10.0,NNW,4.6,-,N/A,,Partly Cloudy,330,2012-11-24 03:53:00
10:20 PM,3.2,1.4,92,30.32,10.0,NNW,5.8,-,N/A,,Mostly Cloudy,330,2012-11-24 04:20:00
10:30 PM,1.4,-0.4,92,30.32,10.0,NNW,5.8,-,N/A,,Scattered Clouds,330,2012-11-24 04:30:00
10:53 PM,7.0,3.0,84,30.41,10.0,North,6.9,-,N/A,,Clear,350,2012-11-24 04:53:00
11:31 PM,3.2,-0.4,85,30.31,10.0,NW,5.8,-,N/A,,Mostly Cloudy,310,2012-11-24 05:31:00
11:53 PM,3.0,-0.9,84,30.41,10.0,NW,4.6,-,N/A,,Overcast,310,2012-11-24 05:53:00